QPF
0.00 0.00 0.00 0.00 0.00 0.00 0.00 0.00 0.00 0.00 0.00 0.00 0.00 0.00 0.00 0.00 0.00 0.00 0.00 0.00 0.00 0.00 0.00 0.00 0.00 0.00 0.00 0.00 0.01 0.00 0.00 0.00 0.07 0.00 0.00 0.00 0.00 0.00 0.00 0.00 0.00 0.00 0.00 0.00 0.00 0.00 0.00
0.00 0.00 0.00 0.00 0.00 0.00 0.00 0.00 0.00 0.00 0.00 0.00 0.00 0.00 0.00 0.00 0.00 0.00 0.00 0.00 0.00 0.00 0.00 0.00 0.00 0.00 0.00 0.00 0.00 0.00 0.00 0.00 0.00 0.00 0.00 0.00 0.00 0.01 0.00 0.00 0.00 0.00 0.00 0.00 0.00 0.00 0.00
0.00 0.00 0.00 0.00 0.00 0.00 0.00 0.00 0.00 0.00 0.00 0.00 0.00 0.00 0.00 0.00 0.00 0.00 0.00 0.00 0.00 0.00 0.00 0.00 0.00 0.01 0.00 0.00 0.00 0.00 0.00 0.00 0.00 0.00 0.00 0.01 0.03 0.02 0.01 0.00 0.00 0.00 0.00 0.00 0.00 0.00 0.00
0.00 0.00 0.00 0.00 0.00 0.00 0.00 0.00 0.00 0.00 0.00 0.00 0.00 0.00 0.00 0.00 0.00 0.00 0.00 0.00 0.00 0.00 0.00 0.00 0.00 0.01 0.00 0.00 0.00 0.00 0.00 0.00 0.00 0.00 0.00 0.02 0.08 0.03 0.00 0.00 0.00 0.00 0.00 0.00 0.00 0.00 0.00
0.00 0.00 0.00 0.00 0.00 0.00 0.00 0.00 0.00 0.00 0.00 0.00 0.00 0.00 0.00 0.00 0.00 0.00 0.00 0.00 0.00 0.00 0.00 0.00 0.00 0.00 0.00 0.00 0.00 0.00 0.00 0.00 0.00 0.00 0.00 0.00 0.01 0.02 0.00 0.00 0.00 0.00 0.00 0.00 0.00 0.00 0.00
0.00 0.00 0.00 0.00 0.00 0.00 0.00 0.00 0.00 0.00 0.00 0.00 0.00 0.00 0.00 0.00 0.00 0.00 0.00 0.00 0.00 0.00 0.00 0.00 0.00 0.00 0.00 0.00 0.00 0.00 0.00 0.00 0.00 0.00 0.00 0.00 0.00 0.00 0.00 0.00 0.00 0.00 0.00 0.00 0.00 0.00 0.00
0.00 0.00 0.00 0.00 0.00 0.00 0.00 0.00 0.00 0.00 0.00 0.00 0.00 0.00 0.00 0.00 0.00 0.00 0.00 0.00 0.00 0.00 0.00 0.00 0.00 0.00 0.00 0.00 0.00 0.00 0.00 0.00 0.00 0.00 0.00 0.00 0.00 0.00 0.00 0.00 0.00 0.00 0.00 0.00 0.00 0.00 0.00
0.00 0.00 0.00 0.00 0.00 0.00 0.00 0.00 0.00 0.00 0.00 0.00 0.00 0.00 0.00 0.00 0.00 0.00 0.00 0.00 0.00 0.00 0.00 0.00 0.00 0.00 0.00 0.00 0.00 0.00 0.00 0.00 0.00 0.00 0.00 0.00 0.00 0.00 0.00 0.00 0.00 0.00 0.00 0.00 0.00 0.00 0.00
0.00 0.00 0.00 0.00 0.00 0.00 0.00 0.00 0.00 0.00 0.00 0.00 0.00 0.00 0.00 0.00 0.00 0.00 0.00 0.00 0.00 0.00 0.00 0.00 0.00 0.00 0.00 0.00 0.00 0.00 0.00 0.00 0.00 0.00 0.00 0.00 0.00 0.00 0.00 0.00 0.00 0.00 0.00 0.00 0.00 0.00 0.00
0.00 0.00 0.00 0.00 0.00 0.00 0.00 0.00 0.00 0.00 0.00 0.00 0.00 0.00 0.00 0.00 0.00 0.00 0.00 0.00 0.00 0.00 0.00 0.00 0.00 0.00 0.00 0.00 0.00 0.00 0.00 0.01 0.00 0.00 0.01 0.00 0.00 0.00 0.00 0.00 0.00 0.00 0.00 0.00 0.00 0.00 0.00
0.00 0.00 0.00 0.00 0.00 0.00 0.00 0.00 0.00 0.00 0.00 0.00 0.00 0.00 0.00 0.00 0.00 0.00 0.00 0.00 0.00 0.00 0.00 0.00 0.00 0.00 0.00 0.00 0.00 0.00 0.00 0.01 0.00 0.00 0.01 0.00 0.00 0.00 0.00 0.00 0.00 0.00 0.00 0.00 0.00 0.00 0.00
0.00 0.00 0.00 0.00 0.00 0.00 0.00 0.00 0.00 0.00 0.00 0.00 0.00 0.00 0.00 0.00 0.00 0.00 0.00 0.00 0.00 0.00 0.00 0.00 0.00 0.00 0.00 0.00 0.00 0.00 0.01 0.01 0.00 0.00 0.00 0.00 0.00 0.00 0.00 0.00 0.00 0.00 0.00 0.01 0.00 0.00 0.00
0.00 0.00 0.00 0.00 0.00 0.00 0.00 0.00 0.00 0.00 0.00 0.00 0.00 0.00 0.00 0.00 0.00 0.00 0.00 0.00 0.00 0.00 0.00 0.00 0.00 0.00 0.00 0.00 0.00 0.00 0.02 0.02 0.01 0.00 0.00 0.00 0.00 0.00 0.00 0.00 0.00 0.00 0.01 0.02 0.01 0.01 0.00
0.00 0.00 0.00 0.00 0.00 0.00 0.00 0.00 0.00 0.00 0.00 0.00 0.00 0.00 0.00 0.00 0.00 0.00 0.00 0.00 0.00 0.00 0.00 0.00 0.00 0.00 0.00 0.00 0.00 0.00 0.00 0.00 0.01 0.01 0.00 0.00 0.00 0.00 0.00 0.00 0.00 0.00 0.00 0.00 0.00 0.00 0.00
0.00 0.00 0.00 0.00 0.00 0.00 0.00 0.00 0.00 0.00 0.00 0.00 0.00 0.00 0.00 0.00 0.00 0.00 0.00 0.00 0.00 0.00 0.00 0.00 0.00 0.00 0.00 0.00 0.00 0.00 0.00 0.00 0.00 0.02 0.01 0.00 0.00 0.00 0.00 0.00 0.00 0.00 0.00 0.00 0.00 0.00 0.00
0.00 0.00 0.00 0.00 0.00 0.00 0.00 0.00 0.00 0.00 0.00 0.00 0.00 0.00 0.00 0.00 0.00 0.00 0.00 0.00 0.00 0.00 0.00 0.00 0.00 0.00 0.00 0.00 0.00 0.00 0.00 0.00 0.00 0.00 0.03 0.02 0.00 0.00 0.00 0.00 0.00 0.00 0.00 0.00 0.01 0.00 0.00
0.00 0.00 0.00 0.00 0.00 0.00 0.00 0.00 0.00 0.00 0.00 0.00 0.00 0.00 0.00 0.00 0.00 0.00 0.00 0.00 0.00 0.00 0.00 0.00 0.00 0.00 0.00 0.00 0.00 0.00 0.00 0.00 0.01 0.00 0.00 0.01 0.00 0.00 0.00 0.00 0.00 0.00 0.00 0.00 0.00 0.00 0.00
0.00 0.00 0.00 0.00 0.00 0.00 0.00 0.00 0.00 0.00 0.00 0.00 0.00 0.00 0.00 0.00 0.00 0.00 0.00 0.00 0.00 0.00 0.00 0.00 0.00 0.00 0.00 0.00 0.00 0.00 0.00 0.00 0.00 0.00 0.00 0.00 0.00 0.00 0.00 0.00 0.00 0.00 0.00 0.00 0.00 0.00 0.00
0.00 0.00 0.00 0.00 0.00 0.00 0.00 0.00 0.00 0.00 0.00 0.00 0.00 0.00 0.00 0.00 0.00 0.00 0.00 0.00 0.00 0.00 0.00 0.00 0.00 0.00 0.00 0.00 0.00 0.00 0.00 0.00 0.00 0.00 0.00 0.00 0.00 0.00 0.00 0.00 0.00 0.00 0.00 0.00 0.00 0.00 0.00
0.00 0.00 0.00 0.00 0.00 0.00 0.00 0.00 0.00 0.00 0.00 0.00 0.00 0.00 0.00 0.00 0.00 0.00 0.00 0.00 0.00 0.00 0.00 0.00 0.00 0.00 0.00 0.00 0.00 0.00 0.00 0.00 0.00 0.00 0.00 0.00 0.00 0.00 0.00 0.00 0.00 0.00 0.00 0.00 0.00 0.00 0.00
0.00 0.00 0.00 0.00 0.00 0.00 0.00 0.00 0.00 0.00 0.00 0.00 0.00 0.00 0.00 0.00 0.00 0.00 0.00 0.00 0.00 0.00 0.00 0.00 0.00 0.00 0.00 0.00 0.00 0.00 0.00 0.00 0.00 0.00 0.00 0.00 0.00 0.00 0.00 0.00 0.00 0.00 0.00 0.00 0.00 0.00 0.00
0.00 0.00 0.00 0.00 0.00 0.00 0.00 0.00 0.00 0.00 0.00 0.00 0.00 0.00 0.00 0.00 0.00 0.00 0.00 0.00 0.00 0.00 0.00 0.00 0.00 0.00 0.00 0.00 0.00 0.00 0.00 0.00 0.00 0.00 0.00 0.00 0.00 0.00 0.00 0.00 0.00 0.00 0.00 0.00 0.00 0.00 0.00
0.00 0.00 0.00 0.00 0.00 0.00 0.00 0.00 0.00 0.00 0.00 0.00 0.00 0.00 0.00 0.00 0.00 0.00 0.00 0.00 0.00 0.00 0.00 0.00 0.00 0.00 0.00 0.00 0.00 0.00 0.00 0.00 0.00 0.00 0.00 0.00 0.00 0.00 0.00 0.00 0.00 0.00 0.00 0.00 0.00 0.00 0.00
0.00 0.00 0.00 0.00 0.00 0.00 0.00 0.00 0.00 0.00 0.00 0.00 0.00 0.00 0.00 0.00 0.00 0.00 0.00 0.00 0.00 0.00 0.00 0.00 0.00 0.00 0.00 0.00 0.00 0.00 0.00 0.00 0.00 0.00 0.00 0.00 0.00 0.00 0.00 0.00 0.00 0.00 0.00 0.00 0.00 0.00 0.00
0.00 0.00 0.00 0.00 0.00 0.00 0.00 0.00 0.00 0.00 0.00 0.00 0.00 0.00 0.00 0.00 0.00 0.00 0.00 0.00 0.00 0.00 0.00 0.00 0.00 0.00 0.00 0.00 0.00 0.00 0.00 0.00 0.00 0.00 0.00 0.00 0.00 0.00 0.00 0.00 0.00 0.00 0.00 0.00 0.00 0.00 0.00
0.00 0.00 0.00 0.00 0.00 0.00 0.00 0.00 0.00 0.00 0.00 0.00 0.00 0.00 0.00 0.00 0.00 0.00 0.00 0.00 0.00 0.00 0.00 0.00 0.00 0.00 0.00 0.00 0.00 0.00 0.00 0.00 0.00 0.00 0.00 0.00 0.00 0.00 0.00 0.00 0.00 0.00 0.00 0.00 0.00 0.00 0.00
0.00 0.00 0.00 0.00 0.00 0.00 0.00 0.00 0.00 0.00 0.00 0.00 0.00 0.00 0.00 0.00 0.00 0.00 0.00 0.00 0.00 0.00 0.00 0.00 0.00 0.00 0.00 0.00 0.00 0.00 0.00 0.00 0.00 0.00 0.00 0.00 0.00 0.01 0.00 0.00 0.00 0.00 0.00 0.00 0.00 0.00 0.00
0.00 0.00 0.00 0.00 0.00 0.00 0.00 0.00 0.00 0.00 0.00 0.00 0.00 0.00 0.00 0.00 0.00 0.00 0.00 0.00 0.00 0.00 0.00 0.00 0.00 0.00 0.00 0.00 0.00 0.00 0.00 0.00 0.00 0.00 0.00 0.00 0.00 0.00 0.01 0.00 0.01 0.00 0.00 0.00 0.00 0.00 0.00
0.00 0.00 0.00 0.00 0.00 0.00 0.02 0.02 0.00 0.00 0.00 0.00 0.00 0.00 0.00 0.00 0.00 0.00 0.00 0.00 0.00 0.00 0.00 0.00 0.00 0.00 0.00 0.00 0.00 0.00 0.00 0.00 0.00 0.00 0.00 0.00 0.00 0.00 0.00 0.00 0.00 0.00 0.00 0.00 0.00 0.00 0.00
MSLP
1023.03 1022.76 1022.42 1021.96 1021.49 1021.27 1020.99 1020.68 1020.34 1019.91 1019.43 1019.13 1018.68 1018.24 1017.83 1017.65 1017.40 1017.08 1016.85 1016.52 1016.32 1016.11 1015.91 1015.73 1015.41 1015.24 1014.95 1014.51 1013.14 1012.08 1012.21 1012.31 1012.62 1013.55 1013.83 1014.18 1014.36 1014.44 1014.84 1015.11 1015.43 1016.33 1017.01 1017.36 1017.63 1018.27 1019.19
1023.02 1022.72 1022.40 1021.92 1021.63 1021.42 1021.05 1020.61 1020.30 1019.97 1019.45 1018.93 1018.65 1018.29 1017.80 1017.42 1017.09 1016.85 1016.55 1016.31 1015.90 1015.82 1015.63 1015.52 1015.38 1015.24 1015.07 1014.19 1012.29 1012.42 1012.23 1012.50 1012.68 1013.19 1013.93 1014.09 1014.03 1013.92 1014.29 1014.96 1015.70 1016.43 1017.25 1017.96 1018.25 1019.13 1019.53
1023.09 1022.84 1022.61 1022.13 1021.81 1021.49 1021.23 1020.82 1020.33 1019.82 1019.45 1019.05 1018.61 1018.17 1017.69 1017.17 1016.75 1016.51 1016.28 1016.01 1015.75 1015.56 1015.38 1015.27 1015.18 1015.38 1014.92 1013.49 1012.35 1012.25 1012.28 1012.35 1012.58 1013.05 1013.52 1013.73 1013.92 1014.19 1014.18 1015.26 1016.01 1016.94 1017.92 1018.55 1019.05 1019.49 1019.75
1023.20 1022.95 1022.63 1022.22 1021.90 1021.58 1021.29 1020.96 1020.44 1019.95 1019.30 1018.90 1018.51 1017.98 1017.36 1016.95 1016.54 1016.12 1015.93 1015.80 1015.63 1015.54 1015.25 1015.05 1014.96 1015.12 1014.24 1012.65 1012.33 1012.31 1012.14 1012.40 1012.64 1012.97 1013.41 1013.56 1014.13 1014.43 1014.33 1015.19 1016.17 1017.24 1018.07 1018.88 1019.08 1019.43 1019.93
1023.35 1023.02 1022.76 1022.39 1022.00 1021.64 1021.21 1020.88 1020.47 1019.95 1019.40 1018.83 1018.41 1017.85 1017.38 1016.85 1016.33 1015.89 1015.50 1015.31 1015.11 1015.06 1014.89 1014.83 1014.90 1014.80 1013.77 1012.48 1012.41 1011.95 1012.06 1012.30 1012.78 1013.12 1013.41 1013.61 1013.85 1014.25 1014.84 1015.35 1016.54 1017.45 1018.26 1018.57 1018.85 1019.05 1019.72
1023.55 1023.20 1022.90 1022.55 1022.17 1021.77 1021.38 1020.94 1020.43 1019.85 1019.38 1018.83 1018.32 1017.87 1017.30 1016.91 1016.40 1015.83 1015.23 1014.89 1014.84 1014.82 1014.69 1014.57 1014.44 1014.82 1013.23 1012.39 1012.01 1011.98 1011.96 1012.13 1012.67 1013.10 1013.61 1013.66 1013.93 1014.18 1014.78 1015.34 1015.98 1017.02 1017.54 1017.89 1018.27 1018.82 1019.69
1023.70 1023.47 1023.10 1022.73 1022.28 1021.82 1021.38 1020.97 1020.49 1019.98 1019.25 1018.72 1018.15 1017.53 1017.21 1016.84 1016.47 1015.97 1015.43 1015.01 1015.31 1015.25 1014.78 1014.10 1013.64 1013.08 1012.31 1012.09 1011.86 1011.85 1011.96 1012.29 1012.47 1013.16 1013.63 1013.89 1014.21 1014.11 1014.53 1014.86 1015.08 1015.84 1016.59 1017.02 1017.03 1017.82 1019.01
1023.73 1023.46 1023.17 1022.80 1022.40 1021.95 1021.40 1021.01 1020.49 1019.99 1019.44 1018.85 1018.35 1017.77 1017.14 1016.74 1016.40 1016.00 1015.86 1015.61 1015.74 1016.09 1015.01 1013.70 1013.35 1013.01 1012.46 1012.06 1012.10 1011.88 1011.92 1012.66 1012.97 1013.39 1013.91 1014.26 1014.07 1014.41 1014.58 1014.82 1015.08 1015.43 1016.10 1016.67 1017.13 1017.54 1018.75
1023.89 1023.50 1023.18 1022.82 1022.45 1022.03 1021.44 1020.97 1020.44 1019.83 1019.31 1018.86 1018.21 1017.70 1017.14 1016.54 1016.10 1015.98 1016.10 1016.02 1015.70 1015.66 1015.52 1013.46 1012.61 1012.31 1012.29 1012.35 1012.13 1011.78 1012.08 1012.47 1013.04 1013.77 1013.86 1013.89 1013.48 1014.02 1014.48 1014.61 1014.94 1015.04 1015.40 1016.20 1016.78 1017.57 1018.54
1023.99 1023.59 1023.21 1022.86 1022.46 1022.07 1021.56 1021.07 1020.50 1019.91 1019.26 1018.79 1018.38 1017.61 1017.05 1016.49 1016.24 1016.38 1016.25 1016.01 1015.81 1015.68 1015.22 1013.10 1012.09 1011.50 1011.78 1012.24 1012.16 1011.54 1011.71 1012.38 1012.92 1013.38 1014.00 1014.14 1013.65 1013.62 1013.94 1013.91 1014.28 1014.53 1014.72 1015.39 1016.33 1017.42 1018.11
1024.07 1023.78 1023.28 1022.88 1022.39 1021.98 1021.54 1021.05 1020.51 1020.02 1019.32 1018.62 1017.91 1017.67 1017.13 1016.92 1016.89 1016.34 1015.97 1015.75 1015.58 1015.68 1014.69 1012.49 1011.74 1011.05 1011.38 1012.11 1012.14 1011.68 1011.73 1012.49 1012.58 1013.01 1013.80 1013.56 1013.34 1013.44 1013.14 1012.79 1013.65 1013.63 1014.10 1014.81 1015.77 1016.65 1017.34
1024.09 1023.84 1023.38 1023.02 1022.61 1022.07 1021.53 1021.00 1020.44 1019.81 1019.21 1018.69 1018.07 1017.35 1017.15 1016.72 1016.81 1016.06 1015.72 1015.66 1015.76 1015.80 1013.49 1012.14 1011.48 1011.40 1011.97 1012.09 1012.11 1012.00 1012.21 1012.40 1012.65 1013.05 1013.14 1012.94 1012.61 1012.61 1012.23 1012.33 1012.74 1013.32 1014.17 1014.89 1015.83 1016.63 1016.74
1024.00 1023.76 1023.52 1023.11 1022.61 1022.12 1021.58 1021.02 1020.39 1019.78 1019.01 1018.37 1017.72 1017.12 1016.94 1016.72 1016.21 1015.62 1015.68 1015.85 1015.98 1014.76 1012.34 1012.29 1011.92 1011.98 1012.13 1012.25 1012.29 1012.34 1012.58 1012.87 1012.94 1013.34 1013.13 1012.99 1012.29 1011.97 1011.80 1012.01 1012.02 1012.75 1013.74 1014.49 1015.33 1015.74 1014.35
1023.93 1023.62 1023.47 1023.14 1022.58 1022.13 1021.56 1020.90 1020.19 1019.49 1018.74 1017.88 1017.07 1016.61 1016.23 1015.94 1015.60 1015.74 1015.80 1016.08 1015.48 1013.12 1012.51 1012.08 1012.11 1012.12 1012.32 1012.17 1012.24 1012.32 1012.78 1013.04 1012.93 1013.20 1013.42 1013.00 1012.23 1011.25 1010.72 1010.70 1010.66 1011.05 1012.60 1012.79 1012.97 1013.45 1013.73
1023.89 1023.54 1023.30 1023.07 1022.65 1022.15 1021.59 1020.90 1020.17 1019.35 1018.54 1017.62 1016.49 1016.37 1016.28 1015.42 1015.48 1015.91 1016.06 1015.74 1014.13 1013.19 1012.82 1012.71 1012.57 1012.66 1012.55 1012.15 1012.44 1012.66 1013.09 1013.00 1012.86 1012.96 1013.29 1012.65 1011.78 1010.38 1009.49 1009.20 1010.05 1010.66 1011.12 1011.40 1012.19 1012.48 1013.06
1023.74 1023.58 1023.28 1022.99 1022.68 1022.22 1021.71 1020.92 1020.17 1019.26 1018.26 1017.41 1017.15 1016.64 1015.88 1015.23 1015.36 1015.90 1016.04 1014.92 1013.78 1012.92 1012.78 1012.82 1013.16 1013.00 1013.29 1013.34 1013.44 1013.71 1013.64 1013.06 1012.91 1012.97 1012.92 1012.80 1011.97 1010.88 1009.83 1009.58 1009.33 1009.42 1010.51 1011.49 1011.69 1011.52 1011.72
1023.77 1023.52 1023.20 1022.98 1022.70 1022.17 1021.63 1020.92 1020.10 1019.18 1018.07 1017.24 1017.15 1016.68 1015.34 1015.20 1015.63 1016.18 1015.88 1014.90 1013.63 1012.85 1012.68 1012.93 1013.05 1013.60 1013.76 1014.00 1014.06 1014.35 1013.92 1013.62 1013.34 1013.50 1013.49 1013.83 1013.57 1012.12 1011.35 1010.48 1010.07 1010.20 1010.35 1010.71 1011.24 1011.06 1010.95
1023.82 1023.60 1023.22 1023.03 1022.71 1022.20 1021.65 1020.97 1020.21 1019.38 1018.38 1017.74 1018.10 1017.26 1015.53 1015.35 1016.21 1016.02 1015.61 1014.87 1013.86 1013.15 1012.92 1013.00 1013.26 1013.48 1013.97 1014.13 1014.26 1014.43 1014.17 1013.91 1013.90 1014.08 1014.39 1014.31 1014.18 1013.31 1011.99 1010.82 1010.77 1011.17 1010.22 1010.20 1010.14 1010.14 1010.02
1023.85 1023.52 1023.35 1023.22 1022.89 1022.35 1021.81 1021.16 1020.44 1019.73 1018.94 1019.18 1018.87 1017.75 1015.91 1015.66 1016.14 1015.98 1015.52 1015.04 1014.42 1013.76 1013.42 1013.42 1013.49 1013.72 1014.15 1014.49 1014.77 1014.48 1014.29 1014.29 1014.49 1014.69 1014.82 1015.19 1014.66 1014.15 1012.81 1012.30 1011.96 1011.85 1011.76 1011.21 1011.06 1010.27 1009.84
1023.93 1023.63 1023.34 1023.20 1023.01 1022.51 1021.92 1021.30 1020.66 1019.79 1019.00 1019.35 1019.19 1018.46 1017.01 1016.52 1016.48 1016.47 1016.11 1015.29 1014.87 1014.61 1014.33 1014.08 1013.99 1014.21 1014.67 1014.95 1015.15 1015.33 1015.06 1015.06 1015.03 1015.35 1015.44 1015.75 1015.66 1015.53 1014.76 1013.87 1013.68 1013.23 1012.59 1012.19 1011.77 1011.41 1010.76
1023.71 1023.72 1023.51 1023.15 1022.87 1022.57 1022.20 1021.64 1021.06 1020.22 1019.31 1019.26 1019.40 1019.10 1018.59 1017.83 1017.15 1016.81 1016.85 1016.08 1015.70 1015.51 1015.12 1014.86 1014.94 1015.26 1015.72 1016.13 1016.16 1016.33 1016.31 1016.17 1016.12 1016.05 1016.29 1016.59 1016.58 1016.39 1015.83 1015.47 1014.91 1014.26 1013.56 1012.83 1012.56 1011.68 1011.37
1023.75 1023.54 1023.37 1022.97 1022.77 1022.47 1022.03 1021.62 1021.07 1020.27 1019.43 1020.25 1020.85 1020.56 1019.73 1018.54 1017.82 1017.38 1016.96 1016.52 1016.19 1016.14 1016.20 1015.72 1015.93 1016.26 1016.69 1017.05 1017.05 1017.30 1017.63 1017.45 1017.17 1017.02 1017.12 1017.25 1017.58 1017.61 1017.30 1016.91 1016.31 1015.37 1014.63 1013.92 1013.15 1012.28 1012.17
1023.80 1023.61 1023.51 1023.21 1022.98 1022.69 1022.36 1022.00 1021.62 1020.89 1020.32 1021.03 1021.37 1021.18 1021.05 1019.45 1018.58 1018.47 1017.94 1017.51 1017.10 1017.25 1017.09 1017.00 1017.16 1017.42 1017.59 1017.77 1017.98 1017.98 1018.09 1018.10 1018.04 1018.05 1018.09 1018.51 1018.72 1019.38 1019.03 1018.53 1018.08 1016.73 1015.55 1014.66 1013.76 1012.79 1012.55
1023.68 1023.67 1023.65 1023.52 1023.20 1022.80 1022.41 1022.24 1021.88 1021.47 1021.51 1022.16 1022.30 1022.28 1021.94 1020.34 1019.61 1019.26 1018.87 1018.82 1018.60 1018.56 1018.48 1018.08 1018.13 1018.18 1018.30 1018.18 1017.99 1017.74 1017.84 1017.72 1017.70 1017.51 1017.72 1018.49 1019.44 1020.22 1020.51 1020.53 1019.79 1017.54 1016.85 1016.59 1016.18 1015.02 1014.51
1023.74 1023.79 1023.78 1023.61 1023.37 1022.94 1022.69 1022.53 1022.09 1021.84 1021.68 1022.28 1022.42 1022.63 1022.28 1021.53 1020.82 1019.96 1019.95 1019.96 1019.75 1019.44 1019.37 1019.14 1018.95 1019.02 1018.67 1018.57 1018.66 1018.34 1018.00 1017.86 1017.06 1016.91 1017.11 1018.02 1019.40 1020.67 1021.85 1021.63 1020.27 1019.34 1019.58 1019.74 1018.99 1017.35 1016.95
1023.46 1023.66 1023.79 1023.67 1023.41 1023.08 1022.68 1022.42 1022.22 1022.16 1021.93 1022.21 1022.41 1022.53 1022.43 1022.37 1021.61 1021.26 1020.89 1020.80 1021.00 1020.57 1020.17 1019.94 1019.59 1019.17 1018.98 1019.14 1019.26 1019.50 1019.33 1018.73 1018.50 1017.72 1017.50 1018.06 1018.93 1020.61 1022.11 1022.34 1021.74 1021.26 1021.68 1021.65 1021.53 1020.48 1019.28
1023.29 1023.49 1023.50 1023.49 1023.42 1023.31 1023.03 1022.61 1022.07 1022.09 1021.82 1022.15 1022.44 1022.54 1022.57 1022.61 1021.63 1021.25 1021.25 1021.39 1021.53 1021.43 1021.25 1020.99 1020.80 1020.11 1019.81 1019.99 1020.22 1020.45 1020.37 1019.86 1020.14 1019.91 1019.30 1019.57 1019.79 1020.16 1020.73 1021.60 1021.93 1022.82 1023.33 1023.31 1023.44 1022.92 1021.44
1023.41 1023.35 1023.54 1023.23 1023.23 1023.05 1022.95 1022.71 1022.32 1022.19 1021.87 1021.70 1022.54 1022.56 1022.67 1022.73 1021.82 1021.52 1021.23 1021.31 1021.44 1021.76 1021.88 1021.64 1021.55 1021.38 1021.08 1021.23 1021.38 1021.46 1021.53 1021.27 1021.50 1020.98 1020.79 1021.16 1021.13 1021.13 1021.49 1021.76 1022.93 1024.11 1024.76 1025.06 1024.09 1023.28 1022.59
1023.49 1023.58 1023.46 1023.35 1023.10 1022.79 1022.70 1022.87 1022.36 1022.07 1021.83 1021.90 1022.55 1022.41 1022.38 1022.95 1022.12 1021.65 1021.40 1021.34 1021.38 1021.70 1022.17 1022.31 1022.48 1022.38 1022.43 1022.62 1022.81 1022.87 1022.98 1022.94 1022.74 1022.64 1021.79 1022.43 1022.66 1022.83 1023.08 1023.11 1023.93 1024.97 1025.29 1025.28 1025.22 1024.45 1023.34
Thickness
5622 5621 5620 5620 5619 5615 5612 5608 5605 5602 5598 5594 5590 5585 5580 5572 5566 5559 5552 5546 5541 5538 5537 5535 5535 5534 5534 5533 5539 5553 5554 5554 5552 5547 5547 5547 5550 5550 5549 5554 5557 5550 5550 5552 5554 5557 5552
5620 5619 5617 5617 5615 5611 5608 5605 5603 5599 5596 5593 5587 5583 5580 5574 5568 5562 5555 5550 5547 5542 5540 5538 5535 5534 5533 5529 5552 5550 5553 5552 5552 5549 5544 5547 5550 5555 5553 5554 5555 5550 5546 5544 5549 5547 5547
5617 5615 5613 5613 5611 5608 5605 5602 5600 5597 5593 5590 5586 5582 5578 5576 5571 5566 5560 5554 5549 5545 5543 5541 5538 5534 5533 5538 5552 5552 5552 5552 5553 5550 5547 5549 5550 5553 5556 5545 5542 5539 5537 5538 5538 5539 5538
5612 5611 5610 5609 5607 5604 5602 5599 5597 5594 5593 5589 5585 5583 5581 5577 5573 5569 5564 5557 5551 5545 5543 5541 5539 5535 5536 5550 5551 5551 5553 5550 5551 5550 5548 5550 5547 5546 5551 5547 5543 5534 5532 5537 5536 5537 5532
5608 5607 5605 5604 5603 5602 5600 5597 5594 5592 5590 5588 5585 5582 5579 5576 5574 5571 5567 5561 5556 5549 5545 5541 5538 5536 5533 5550 5547 5552 5552 5549 5546 5545 5544 5547 5547 5544 5542 5535 5533 5530 5523 5530 5533 5534 5528
5603 5602 5600 5600 5599 5597 5595 5593 5592 5591 5588 5586 5583 5579 5577 5574 5571 5569 5568 5564 5557 5551 5546 5543 5540 5533 5543 5547 5550 5549 5551 5549 5544 5542 5538 5540 5538 5535 5531 5534 5529 5522 5531 5535 5535 5528 5523
5598 5596 5595 5594 5593 5592 5590 5589 5587 5585 5586 5585 5583 5581 5576 5572 5568 5566 5565 5562 5553 5549 5544 5545 5547 5545 5549 5549 5550 5548 5547 5544 5544 5538 5531 5534 5528 5530 5535 5536 5541 5537 5533 5536 5541 5533 5519
5593 5592 5590 5588 5587 5585 5585 5584 5583 5581 5580 5579 5578 5576 5574 5569 5565 5562 5558 5555 5548 5538 5539 5546 5544 5542 5544 5545 5539 5542 5545 5535 5533 5528 5528 5527 5525 5531 5533 5533 5535 5533 5529 5528 5530 5530 5519
5586 5586 5584 5583 5582 5580 5580 5580 5579 5578 5577 5575 5574 5573 5571 5569 5566 5560 5553 5547 5543 5539 5531 5543 5546 5543 5539 5538 5534 5536 5537 5534 5528 5522 5523 5522 5535 5530 5526 5526 5525 5528 5525 5520 5529 5515 5517
5579 5578 5578 5576 5575 5574 5574 5573 5572 5572 5572 5570 5568 5568 5567 5566 5562 5553 5547 5543 5538 5533 5519 5546 5545 5544 5539 5534 5529 5537 5535 5530 5524 5520 5517 5516 5524 5525 5522 5524 5521 5518 5529 5528 5517 5506 5506
5570 5569 5570 5569 5569 5567 5566 5566 5565 5564 5564 5565 5566 5562 5560 5554 5549 5548 5547 5540 5535 5528 5521 5547 5542 5547 5538 5529 5528 5531 5529 5520 5520 5517 5510 5519 5518 5515 5518 5529 5521 5525 5530 5522 5508 5511 5507
5562 5560 5560 5559 5558 5559 5559 5559 5559 5559 5558 5557 5556 5556 5551 5550 5543 5543 5539 5534 5528 5522 5513 5541 5540 5533 5525 5524 5523 5522 5517 5517 5515 5511 5510 5515 5519 5518 5525 5526 5524 5523 5515 5509 5495 5497 5493
5554 5551 5550 5550 5550 5551 5551 5551 5551 5551 5551 5551 5550 5549 5544 5539 5539 5538 5531 5524 5516 5515 5549 5536 5531 5526 5521 5515 5515 5513 5505 5499 5503 5496 5490 5506 5512 5517 5521 5513 5519 5515 5508 5500 5494 5490 5511
5545 5544 5542 5541 5542 5542 5542 5542 5543 5543 5543 5544 5545 5543 5540 5537 5533 5526 5521 5515 5509 5536 5533 5533 5526 5522 5513 5513 5510 5507 5501 5493 5495 5498 5489 5486 5494 5514 5521 5521 5523 5520 5506 5511 5514 5511 5504
5536 5536 5534 5532 5532 5532 5532 5532 5533 5534 5534 5536 5539 5534 5529 5529 5522 5513 5508 5498 5512 5523 5521 5513 5512 5504 5505 5509 5503 5500 5489 5489 5494 5493 5485 5491 5487 5517 5526 5533 5523 5511 5506 5520 5510 5511 5495
5527 5527 5525 5523 5521 5520 5520 5521 5521 5524 5526 5527 5522 5519 5519 5517 5510 5500 5494 5503 5500 5514 5507 5501 5493 5494 5484 5485 5483 5471 5473 5482 5489 5485 5486 5479 5485 5502 5514 5515 5519 5516 5518 5497 5493 5502 5503
5518 5516 5514 5511 5509 5508 5507 5507 5508 5509 5513 5515 5509 5507 5510 5503 5493 5483 5482 5482 5495 5500 5496 5485 5480 5471 5468 5467 5461 5449 5462 5469 5468 5466 5466 5453 5455 5477 5482 5494 5501 5502 5498 5503 5493 5494 5505
5504 5502 5500 5496 5494 5493 5492 5491 5491 5491 5494 5493 5481 5486 5494 5487 5473 5468 5469 5477 5484 5482 5479 5473 5467 5461 5452 5453 5437 5446 5453 5456 5449 5447 5439 5444 5435 5425 5473 5486 5479 5469 5503 5503 5498 5505 5511
5492 5490 5485 5481 5479 5478 5476 5474 5474 5473 5473 5464 5458 5461 5475 5470 5455 5456 5457 5460 5464 5462 5459 5456 5452 5450 5445 5444 5430 5434 5438 5435 5431 5432 5429 5422 5428 5409 5431 5460 5458 5460 5457 5466 5466 5479 5494
5477 5475 5472 5468 5464 5462 5460 5458 5457 5457 5456 5449 5444 5448 5450 5449 5444 5443 5439 5442 5441 5441 5443 5442 5438 5435 5431 5426 5422 5409 5420 5414 5414 5411 5413 5405 5406 5405 5416 5419 5425 5434 5443 5446 5447 5442 5458
5467 5463 5459 5457 5454 5451 5446 5444 5442 5442 5443 5438 5430 5430 5423 5422 5428 5423 5418 5424 5424 5420 5426 5425 5422 5416 5408 5392 5396 5389 5392 5389 5388 5395 5387 5384 5366 5376 5394 5398 5401 5411 5420 5433 5431 5434 5443
5459 5456 5452 5450 5445 5441 5439 5433 5431 5430 5431 5418 5409 5404 5397 5403 5409 5408 5408 5409 5411 5408 5403 5410 5403 5394 5388 5382 5383 5359 5361 5356 5366 5362 5370 5356 5337 5360 5369 5374 5370 5380 5394 5406 5419 5430 5429
5450 5446 5442 5438 5435 5431 5426 5423 5417 5415 5414 5397 5388 5385 5376 5392 5393 5390 5390 5389 5389 5381 5386 5382 5374 5367 5364 5362 5347 5346 5340 5336 5337 5336 5327 5333 5319 5316 5280 5327 5336 5321 5367 5401 5416 5419 5429
5443 5437 5431 5427 5424 5421 5417 5410 5406 5401 5393 5381 5373 5365 5361 5379 5373 5375 5368 5365 5364 5359 5357 5359 5354 5348 5345 5339 5337 5336 5328 5330 5329 5329 5330 5303 5300 5273 5254 5278 5246 5330 5319 5334 5356 5370 5365
5434 5427 5422 5418 5413 5410 5404 5399 5395 5389 5382 5371 5361 5353 5348 5350 5352 5357 5346 5341 5338 5337 5334 5335 5333 5325 5323 5322 5315 5315 5321 5318 5321 5323 5320 5312 5277 5242 5247 5252 5266 5312 5283 5288 5316 5361 5324
5427 5420 5413 5409 5404 5400 5396 5391 5383 5377 5371 5362 5354 5345 5338 5331 5334 5330 5327 5323 5314 5311 5314 5317 5315 5310 5311 5305 5304 5261 5269 5294 5284 5295 5307 5293 5287 5264 5196 5233 5241 5278 5252 5244 5261 5321 5298
5420 5414 5408 5401 5396 5389 5384 5380 5377 5368 5362 5354 5344 5334 5327 5319 5323 5321 5314 5307 5302 5297 5293 5293 5288 5290 5289 5287 5280 5250 5245 5279 5248 5248 5258 5257 5267 5276 5277 5280 5265 5212 5211 5220 5290 5304 5267
5410 5406 5398 5395 5388 5383 5376 5371 5365 5357 5352 5348 5333 5325 5318 5309 5310 5308 5306 5299 5292 5282 5273 5275 5270 5266 5266 5262 5258 5245 5229 5240 5230 5235 5232 5225 5206 5226 5247 5283 5292 5189 5209 5258 5234 5214 5243
5400 5394 5390 5384 5380 5376 5369 5360 5355 5349 5344 5335 5323 5318 5311 5297 5298 5297 5294 5288 5282 5272 5260 5253 5249 5243 5238 5234 5220 5214 5198 5191 5186 5207 5235 5238 5229 5233 5213 5258 5205 5190 5197 5188 5189 5202 5227